Date,TemperatureHighF,TemperatureAvgF,TemperatureLowF,DewpointHighF,DewpointAvgF,DewpointLowF,HumidityHigh,HumidityAvg,HumidityLow,PressureMaxIn,PressureMinIn,WindSpeedMaxMPH,WindSpeedAvgMPH,GustSpeedMaxMPH,PrecipitationSumIn
2013-1-1,17.7,7.0,0.2,6.8,2.7,-0.8,97,83,61,30.19,30.08,8,2,11,0.00
2013-1-2,24.0,16.8,9.2,19.7,11.7,4.5,97,81,59,30.10,29.98,9,3,14,0.00
2013-1-3,24.9,19.1,7.5,22.8,18.0,5.9,100,96,82,30.18,29.99,11,5,20,0.00
2013-1-4,28.9,18.3,7.1,20.2,15.3,6.1,100,89,69,30.14,30.03,13,6,21,0.00
2013-1-5,34.4,26.1,14.3,34.3,25.5,14.0,100,97,83,30.15,29.83,13,5,22,0.00
2013-1-6,30.5,22.0,13.6,29.0,19.8,13.1,98,91,79,30.23,29.83,11,5,20,0.00
2013-1-7,36.2,25.4,12.4,28.0,21.1,12.2,100,85,65,30.22,29.98,16,6,26,0.00
2013-1-8,37.7,31.8,23.3,33.7,29.3,23.1,100,91,70,30.04,29.88,14,4,21,0.00
2013-1-9,39.3,33.2,25.8,33.6,27.1,21.6,100,79,57,30.42,29.89,17,5,34,0.00
2013-1-10,38.2,31.3,20.0,35.3,28.2,19.6,100,89,65,30.44,29.81,10,3,17,0.24
2013-1-11,44.8,39.6,35.1,44.8,39.6,34.9,100,100,100,29.81,29.54,11,4,17,0.02
2013-1-12,47.4,31.4,19.6,47.3,28.3,15.6,100,88,76,29.99,29.55,18,7,30,0.00
2013-1-13,20.2,15.0,10.1,16.4,10.1,5.2,88,81,69,30.16,29.87,12,5,18,0.00
2013-1-14,26.2,14.5,5.6,13.2,8.9,4.5,97,79,55,30.38,30.16,10,3,14,0.00
2013-1-15,30.0,19.8,12.5,16.1,13.9,11.0,96,79,55,30.36,30.02,11,4,17,0.00
2013-1-16,34.7,26.0,17.3,34.2,21.9,11.0,100,85,69,30.03,29.73,16,6,26,0.00
2013-1-17,27.7,20.0,13.5,22.6,10.8,4.0,93,68,47,30.34,30.03,11,2,16,0.00
2013-1-18,42.6,29.5,13.0,34.2,24.5,11.4,98,83,64,30.35,29.80,18,6,30,0.00
2013-1-19,44.7,33.9,12.3,35.3,23.5,3.4,87,66,47,29.95,29.63,24,10,49,0.00
2013-1-20,14.4,9.3,4.9,4.0,0.4,-1.4,76,67,53,30.27,29.95,16,5,27,0.00
2013-1-21,9.1,1.3,-3.0,3.0,-6.1,-9.9,91,71,57,30.21,30.07,13,6,23,0.00
2013-1-22,7.3,0.2,-7.6,-0.8,-6.1,-10.3,90,75,59,30.30,30.21,10,3,15,0.00
2013-1-23,17.4,10.7,2.8,16.2,5.7,-4.3,98,80,66,30.37,30.02,15,5,29,0.00
2013-1-24,15.3,5.9,-1.9,11.2,-0.6,-6.7,84,74,63,30.58,30.26,11,3,15,0.00
2013-1-25,24.7,18.3,12.1,18.9,13.5,6.7,100,82,64,30.26,29.88,13,5,24,0.00
2013-1-26,26.0,16.7,5.9,15.6,8.9,4.3,94,73,51,30.34,30.17,8,2,13,0.00
2013-1-27,33.2,27.6,21.5,33.1,24.4,14.5,100,88,70,30.26,29.79,10,4,19,0.09
2013-1-28,41.5,35.7,33.1,39.3,35.5,33.0,100,99,86,29.90,29.72,10,2,15,0.11
2013-1-29,52.7,42.2,33.6,52.6,42.2,33.6,100,100,100,29.72,29.46,10,3,14,1.42
2013-1-30,33.8,25.7,13.5,33.7,25.6,11.9,100,100,94,29.57,29.30,14,6,27,0.53
2013-1-31,13.4,7.2,-1.7,12.1,4.8,-3.6,100,89,73,30.10,29.57,13,6,25,0.00
2013-2-1,5.1,-1.3,-9.7,4.2,-5.0,-11.6,97,84,69,30.25,30.04,11,4,18,0.03
2013-2-2,12.3,7.3,4.0,6.8,4.7,2.1,100,89,72,30.05,29.94,6,1,10,0.01
2013-2-3,20.3,12.7,6.0,15.0,10.0,5.3,100,89,66,29.97,29.87,12,2,16,0.03
2013-2-4,16.7,13.2,8.5,15.2,11.3,6.5,100,92,72,29.93,29.86,10,4,15,0.05
2013-2-5,28.4,19.5,7.3,27.0,18.1,5.7,100,94,79,30.06,29.72,12,5,20,0.02
2013-2-6,33.7,23.0,7.2,33.7,20.9,7.2,100,92,74,30.16,30.00,9,2,15,0.00
2013-2-7,33.9,30.9,21.8,33.9,30.9,21.6,100,100,100,30.05,29.88,9,2,12,0.57
2013-2-8,25.4,20.1,11.5,23.3,19.5,11.5,100,98,87,30.33,30.06,6,0,9,0.00
2013-2-9,28.4,22.3,11.9,28.0,22.2,11.7,100,100,96,30.33,30.01,12,4,21,0.00
2013-2-10,41.7,33.6,24.0,41.6,33.6,23.9,100,100,100,30.01,29.34,17,5,33,0.46
2013-2-11,35.7,28.4,22.1,35.6,26.7,19.3,100,94,82,29.96,29.36,21,9,39,0.00
2013-2-12,31.2,23.5,19.5,24.5,20.5,15.5,100,88,71,30.04,29.81,13,4,23,0.00
2013-2-13,37.7,29.8,21.0,33.5,27.2,20.8,100,91,70,29.81,29.61,10,3,16,0.00
2013-2-14,34.7,32.4,27.0,34.7,28.2,20.8,100,85,62,29.97,29.53,14,5,23,0.00
2013-2-15,26.9,18.4,9.9,23.3,9.0,2.6,88,67,46,30.17,29.97,10,4,20,0.00
2013-2-16,18.1,10.1,5.1,8.1,3.1,-0.1,91,74,53,30.16,30.09,9,2,13,0.00
2013-2-17,26.7,16.7,1.0,22.2,9.0,-3.0,88,72,55,30.13,29.84,10,3,21,0.00
2013-2-18,45.9,32.5,19.3,39.2,29.2,18.8,100,88,66,29.84,29.45,14,6,23,0.11
2013-2-19,19.3,10.5,6.2,18.6,6.9,-1.5,100,85,70,30.15,29.54,16,8,29,0.00
2013-2-20,23.2,12.5,2.7,12.1,5.6,-1.7,84,74,60,30.33,30.15,10,3,17,0.00
2013-2-21,24.4,17.0,9.2,24.4,15.4,7.2,100,94,74,30.38,29.96,16,6,26,0.00
2013-2-22,30.2,25.9,22.6,29.8,25.8,22.5,100,99,95,29.96,29.74,13,4,23,0.13
2013-2-23,28.7,24.0,19.9,25.1,21.3,17.8,100,90,71,29.90,29.81,11,5,17,0.00
2013-2-24,38.4,26.1,16.3,25.5,20.5,16.3,100,81,54,30.09,29.90,8,2,10,0.00
2013-2-25,42.1,29.9,18.9,29.1,24.9,18.3,100,83,58,30.11,29.98,7,1,12,0.00
2013-2-26,32.0,29.3,27.2,30.1,28.1,26.3,100,96,84,29.98,29.60,20,10,37,0.22
2013-2-27,32.6,29.7,27.2,32.6,29.7,27.1,100,100,100,29.77,29.59,11,5,20,0.20
2013-2-28,34.0,30.2,23.0,31.2,27.9,21.0,100,92,72,30.09,29.77,13,5,21,0.00
2013-3-1,24.8,21.8,15.1,22.2,19.0,12.7,100,89,72,30.20,30.10,11,3,21,0.00
2013-3-2,30.0,18.9,10.2,15.3,11.1,6.7,98,73,49,30.21,30.11,9,2,14,0.00
2013-3-3,29.4,19.9,9.8,14.2,9.4,4.7,84,64,44,30.12,30.03,6,1,9,0.00
2013-3-4,31.4,24.0,13.6,26.7,18.7,6.9,97,80,68,30.06,29.95,11,4,17,0.00
2013-3-5,27.7,26.4,24.3,27.7,26.4,24.3,100,100,97,30.07,29.85,14,6,20,0.43
2013-3-6,31.5,26.9,23.5,27.5,24.7,22.0,100,92,79,30.29,30.07,10,4,16,0.00
2013-3-7,37.7,25.4,15.2,24.8,20.4,15.2,100,83,55,30.37,30.27,6,1,8,0.00
2013-3-8,37.9,28.0,16.2,28.4,24.0,16.0,100,86,65,30.41,30.21,12,3,20,0.00
2013-3-9,38.9,34.9,30.4,37.4,33.1,26.3,100,93,80,30.22,29.75,12,5,21,0.43
2013-3-10,40.9,36.7,33.0,40.9,36.7,33.0,100,100,100,29.77,29.59,15,5,26,0.84
2013-3-11,33.4,31.3,28.7,33.3,31.3,28.1,100,100,98,29.74,29.53,12,4,20,0.00
2013-3-12,30.3,26.3,22.3,29.7,24.9,18.0,100,94,76,29.99,29.74,12,5,21,0.01
2013-3-13,33.0,23.8,16.8,21.9,12.5,4.4,100,65,33,30.27,29.99,12,5,22,0.00
2013-3-14,36.6,25.3,14.7,30.5,22.1,11.5,100,88,64,30.27,30.02,8,2,13,0.01
2013-3-15,34.0,30.6,26.3,34.0,30.6,26.1,100,100,98,30.02,29.76,10,3,16,0.18
2013-3-16,29.7,25.6,20.1,29.2,22.7,19.1,100,89,72,30.11,29.76,13,5,18,0.00
2013-3-17,32.1,23.0,15.2,21.6,16.0,8.5,92,75,62,30.22,29.95,10,5,16,0.00
2013-3-18,31.9,24.9,15.8,31.9,23.8,11.3,100,96,76,29.95,29.55,14,5,30,0.10
2013-3-19,29.5,18.1,9.5,13.5,9.4,6.5,93,70,42,30.02,29.69,17,8,30,0.00
2013-3-20,20.1,13.5,6.4,8.8,4.0,-1.2,73,66,55,30.04,29.97,12,6,20,0.00
2013-3-21,30.2,18.2,7.2,13.0,7.9,2.7,86,65,44,30.02,29.95,8,3,13,0.00
2013-3-22,38.0,25.1,13.3,18.3,13.7,8.2,82,63,43,30.03,29.98,7,1,9,0.00
2013-3-23,38.1,29.4,21.4,23.2,19.2,16.5,85,66,46,30.10,30.01,9,2,13,0.00
2013-3-24,30.2,28.4,27.2,29.6,26.6,23.0,100,93,79,30.04,29.77,14,6,23,0.03
2013-3-25,35.2,30.2,24.7,25.9,23.5,19.6,91,76,66,30.08,29.81,10,4,23,0.00
2013-3-26,41.9,34.3,29.1,27.5,23.7,21.3,81,66,55,30.24,30.07,10,3,14,0.00
2013-3-27,44.9,35.8,31.1,26.3,22.3,17.8,80,59,38,30.30,30.24,8,2,12,0.00
2013-3-28,49.3,37.5,28.0,23.5,20.4,16.8,69,52,31,30.33,30.26,8,1,11,0.00
2013-3-29,52.9,40.9,28.7,25.8,22.2,17.0,74,50,26,30.30,30.19,6,1,8,0.00
2013-3-30,51.7,42.4,34.1,44.5,33.5,23.7,100,72,55,30.19,29.80,12,5,22,0.00
2013-3-31,46.4,38.4,31.0,42.1,33.2,18.4,100,83,51,29.90,29.72,15,5,26,0.00
2013-4-1,35.2,29.2,24.0,18.8,14.4,9.2,67,54,37,30.17,29.90,15,5,25,0.00
2013-4-2,40.4,30.2,22.2,18.6,15.0,9.5,82,55,33,30.30,30.17,15,3,21,0.00
2013-4-3,46.2,34.6,21.8,20.8,15.7,7.8,80,48,26,30.42,30.24,10,2,18,0.00
2013-4-4,56.4,42.7,30.4,34.6,26.9,19.6,68,54,40,30.24,29.95,13,6,24,0.00
2013-4-5,50.4,40.0,31.7,29.5,24.5,18.3,72,55,34,30.22,30.04,10,3,16,0.00
2013-4-6,60.4,46.2,33.3,52.2,34.9,18.8,100,66,42,30.08,29.54,15,6,25,0.04
2013-4-7,56.8,44.7,35.9,47.5,37.4,33.5,100,78,46,29.94,29.57,14,4,23,0.00
2013-4-8,63.6,46.6,36.9,55.1,43.8,36.1,100,91,54,29.97,29.58,9,5,18,0.74
2013-4-9,42.8,37.9,35.3,42.7,37.9,35.3,100,100,100,29.99,29.83,16,8,28,1.35
2013-4-10,35.9,33.4,31.2,35.9,33.4,31.0,100,100,100,30.06,29.86,18,8,32,1.01
2013-4-11,37.9,35.6,33.9,37.9,35.6,33.9,100,100,100,29.88,29.55,26,8,47,0.28
2013-4-12,40.0,35.0,33.4,40.0,33.8,29.3,100,96,83,29.78,29.50,12,4,18,0.02
2013-4-13,37.7,33.7,30.2,32.5,28.4,24.2,100,82,64,29.97,29.77,13,5,22,0.00
2013-4-14,50.2,38.9,30.2,48.1,36.6,27.5,100,92,72,29.97,29.55,15,6,28,0.12
2013-4-15,58.2,46.3,39.3,52.3,42.9,32.5,100,90,43,29.96,29.57,18,5,31,0.53
2013-4-16,54.7,42.6,32.8,37.5,32.8,28.8,96,71,41,30.27,29.95,11,4,18,0.00
2013-4-17,42.5,39.5,36.7,42.0,37.7,33.0,100,94,74,30.29,29.80,19,6,31,1.36
2013-4-18,58.2,44.9,35.6,58.0,44.9,35.6,100,100,100,29.85,29.31,19,6,37,0.61
2013-4-19,37.4,33.8,30.4,35.7,29.1,22.4,100,84,61,29.90,29.35,17,9,32,0.00
2013-4-20,45.9,35.0,25.6,23.8,18.6,10.9,89,55,25,30.35,29.90,12,2,21,0.00
2013-4-21,52.4,41.7,32.4,37.2,29.4,19.8,80,63,44,30.46,30.22,14,5,25,0.00
2013-4-22,66.7,53.7,42.5,41.8,37.5,33.3,81,57,32,30.24,29.99,13,5,26,0.00
2013-4-23,55.5,42.7,37.0,49.5,37.0,27.4,100,81,60,30.00,29.88,14,5,22,0.00
2013-4-24,53.1,41.9,32.3,31.5,25.3,18.5,83,55,27,30.02,29.95,12,4,20,0.00
2013-4-25,50.9,42.6,36.5,38.3,31.7,25.5,100,68,40,30.26,29.96,13,5,22,0.00
2013-4-26,68.1,54.0,38.7,46.4,36.4,24.9,75,52,37,30.25,30.13,18,7,30,0.00
2013-4-27,64.1,58.4,47.9,49.0,45.5,43.3,90,63,49,30.22,30.00,10,3,17,0.00
2013-4-28,72.5,58.5,44.1,48.9,44.7,39.6,100,66,31,30.00,29.79,7,1,14,0.00
2013-4-29,69.7,61.0,53.0,60.5,53.4,48.1,98,77,51,29.86,29.70,10,5,18,0.00
2013-4-30,85.2,72.3,59.3,65.2,51.2,35.6,100,57,18,29.89,29.66,19,8,32,0.00
2013-5-1,81.6,65.6,49.5,53.5,47.9,42.6,78,55,33,30.22,29.90,13,4,21,0.00
2013-5-2,54.2,44.2,35.3,42.7,39.0,35.3,100,83,58,30.30,30.20,17,6,23,0.11
2013-5-3,46.1,39.0,33.7,45.9,39.0,33.7,100,100,100,30.21,29.98,15,7,21,0.59
2013-5-4,68.5,55.3,45.9,62.2,50.0,45.9,100,85,45,30.06,29.95,10,4,15,0.20
2013-5-5,72.5,60.3,48.8,52.7,47.1,40.1,100,66,31,30.06,30.00,9,3,13,0.00
2013-5-6,73.9,62.5,50.0,47.9,43.1,37.2,90,52,27,30.09,30.00,9,2,14,0.00
2013-5-7,79.2,66.4,54.4,47.7,37.7,25.1,74,39,15,30.07,29.99,8,1,10,0.00
2013-5-8,80.2,68.7,56.1,48.9,42.9,33.4,68,42,19,30.04,29.96,6,1,9,0.00
2013-5-9,65.7,58.4,47.9,61.6,55.3,47.9,100,90,54,29.97,29.85,12,3,21,0.76
2013-5-10,52.4,45.9,40.9,51.3,45.7,40.9,100,99,93,29.99,29.87,16,4,24,0.18
2013-5-11,53.5,47.4,40.3,51.0,36.3,24.1,100,69,38,30.04,29.81,16,6,29,0.02
2013-5-12,54.7,44.7,35.0,29.5,25.0,19.2,72,48,26,30.12,30.04,11,4,21,0.00
2013-5-13,65.2,51.7,31.8,39.2,30.0,21.2,100,50,19,30.16,29.89,10,2,16,0.00
2013-5-14,91.2,72.7,54.4,57.5,44.3,31.8,66,41,13,29.89,29.58,12,5,24,0.00
2013-5-15,79.7,70.9,61.1,57.4,41.1,30.1,56,35,19,29.88,29.58,12,3,22,0.00
2013-5-16,86.5,71.2,59.1,46.0,40.3,30.2,57,36,14,29.97,29.87,9,2,16,0.00
2013-5-17,64.6,57.5,48.6,57.4,47.6,31.9,100,72,38,30.08,29.96,13,5,22,0.21
2013-5-18,80.1,64.0,53.3,65.2,57.2,48.8,98,81,47,30.06,29.93,9,2,14,0.00
2013-5-19,85.0,72.5,63.4,67.5,62.5,52.0,100,74,42,29.95,29.64,20,5,39,0.04
2013-5-20,80.6,70.7,60.6,67.3,60.6,57.0,100,74,46,29.80,29.60,14,5,25,0.56
2013-5-21,73.8,67.6,59.1,66.5,59.3,54.1,100,77,53,29.70,29.60,14,4,26,0.00
2013-5-22,69.4,61.9,54.5,65.1,60.4,54.1,100,95,71,29.78,29.62,11,2,15,0.01
2013-5-23,62.9,53.6,45.7,54.2,45.6,31.0,100,78,33,30.29,29.78,12,4,23,0.12
2013-5-24,65.9,51.6,35.5,45.6,38.7,29.8,100,66,30,30.44,30.28,8,1,11,0.00
2013-5-25,58.2,51.7,44.2,44.6,40.8,33.6,100,68,43,30.38,30.28,8,2,15,0.05
2013-5-26,65.6,54.5,45.0,56.3,44.6,35.5,100,72,42,30.30,30.14,10,3,17,0.05
2013-5-27,54.7,52.7,50.1,54.7,50.9,41.8,100,94,65,30.14,29.87,9,4,16,0.09
2013-5-28,71.0,61.0,51.0,71.0,61.0,51.0,100,100,96,29.87,29.70,9,2,13,0.93
2013-5-29,81.6,70.5,63.0,71.3,65.1,60.3,100,85,58,29.91,29.77,9,3,17,0.41
2013-5-30,82.3,70.5,61.7,76.0,67.0,61.6,100,90,55,29.88,29.70,15,4,27,0.28
2013-5-31,76.8,67.8,61.5,70.5,63.9,58.1,100,89,54,29.78,29.67,14,4,24,0.00
2013-6-1,77.8,68.6,61.6,69.4,62.3,52.9,100,83,48,29.73,29.63,12,4,21,0.00
2013-6-2,63.4,54.5,47.2,60.9,46.5,41.0,100,77,47,30.03,29.72,12,4,23,0.00
2013-6-3,71.0,58.2,43.0,53.8,42.4,34.1,100,62,29,30.11,30.01,7,1,11,0.00
2013-6-4,68.1,60.8,51.4,54.2,48.4,41.2,100,66,42,30.17,30.07,8,2,15,0.07
2013-6-5,66.5,56.3,49.5,62.8,55.5,49.3,100,97,69,30.13,29.93,8,2,13,0.22
2013-6-6,57.7,54.6,51.3,57.7,54.6,51.3,100,100,100,29.96,29.91,7,2,12,0.14
2013-6-7,71.2,59.3,52.4,56.1,51.2,43.7,100,78,41,30.00,29.92,7,2,11,0.00
2013-6-8,72.5,63.4,53.4,53.0,47.0,41.5,96,57,36,30.00,29.93,8,2,13,0.00
2013-6-9,77.1,66.1,56.4,66.0,56.5,47.5,100,73,48,30.00,29.80,10,3,18,0.31
2013-6-10,80.3,69.9,59.2,70.1,62.4,59.1,100,80,51,29.88,29.78,7,1,12,0.08
2013-6-11,83.8,72.5,59.8,70.0,63.4,58.8,100,77,44,29.92,29.81,8,2,12,0.00
2013-6-12,79.1,69.9,61.0,72.9,68.0,60.9,100,94,68,29.93,29.61,11,4,18,0.46
2013-6-13,78.8,67.7,57.8,63.9,56.6,51.3,100,72,40,30.06,29.75,9,3,15,0.00
2013-6-14,78.3,67.4,54.0,60.5,55.5,49.9,100,69,39,30.16,29.99,7,2,15,0.00
2013-6-15,82.8,69.1,57.7,72.9,63.8,53.8,100,85,54,30.07,29.82,11,3,17,0.22
2013-6-16,83.8,73.8,65.6,71.8,57.4,42.5,100,64,24,29.93,29.87,8,3,16,1.23
2013-6-17,86.3,74.1,64.0,60.4,53.7,49.2,82,51,29,29.97,29.89,10,2,15,0.00
2013-6-18,71.8,62.8,54.5,60.8,53.5,45.1,100,74,46,30.10,29.96,11,4,16,0.00
2013-6-19,80.8,66.6,49.3,54.3,49.2,42.1,100,59,28,30.15,30.06,6,1,10,0.00
2013-6-20,86.7,74.0,59.5,63.7,53.1,45.1,74,50,29,30.15,30.04,8,2,13,0.00
2013-6-21,79.3,70.6,64.4,71.0,66.2,62.3,100,87,61,30.11,29.86,12,2,28,0.68
2013-6-22,82.7,71.0,65.2,77.4,67.8,64.6,100,91,59,30.13,29.93,11,4,21,1.63
2013-6-23,84.1,72.6,62.1,74.9,68.5,62.1,100,88,61,30.09,29.87,10,4,20,0.29
2013-6-24,80.0,71.5,67.3,70.9,68.4,64.1,100,91,60,30.04,29.84,11,3,20,0.00
2013-6-25,83.5,71.5,63.9,77.0,69.7,63.8,100,95,65,29.97,29.81,10,2,21,2.46
2013-6-26,84.9,74.5,64.7,73.9,69.5,64.5,100,86,51,29.83,29.72,9,2,15,1.96
2013-6-27,86.2,77.1,69.1,74.6,65.3,54.7,100,71,38,29.82,29.73,13,3,23,0.00
2013-6-28,76.8,68.7,64.5,69.8,61.2,55.6,100,79,51,29.77,29.65,12,3,21,0.46
2013-6-29,71.2,65.2,62.1,67.3,62.3,55.4,100,91,60,29.85,29.65,13,3,22,0.23
2013-6-30,76.6,67.0,57.6,60.4,52.7,45.6,93,62,39,30.07,29.85,14,3,21,0.00
2013-7-1,77.3,67.8,58.9,54.7,50.4,44.7,75,56,33,30.14,30.06,14,3,23,0.00
2013-7-2,73.3,65.2,55.8,58.3,50.5,37.4,95,62,29,30.14,30.07,10,2,16,0.00
2013-7-3,71.5,61.9,52.3,63.5,56.9,50.0,100,84,65,30.11,30.04,6,1,8,0.00
2013-7-4,83.8,71.3,58.4,62.9,58.7,51.3,100,69,35,30.09,30.02,7,2,12,0.00
2013-7-5,84.2,74.3,62.8,66.1,62.6,57.6,100,70,43,30.07,30.01,9,3,17,0.00
2013-7-6,85.9,75.1,64.1,67.4,63.0,59.6,97,69,44,30.05,29.97,8,2,14,0.00
2013-7-7,88.5,77.3,66.9,72.4,68.1,63.6,100,76,48,30.00,29.93,8,3,15,0.00
2013-7-8,89.3,78.5,69.8,77.8,72.4,69.1,100,84,52,30.00,29.93,11,3,18,0.45
2013-7-9,83.8,76.2,69.6,79.1,74.1,69.6,100,94,68,30.01,29.85,11,3,17,0.13
2013-7-10,78.8,73.0,64.9,75.9,61.7,51.7,100,71,42,30.04,29.87,10,2,18,0.00
2013-7-11,81.3,70.2,58.2,63.0,56.4,48.3,100,66,34,30.15,30.05,7,1,12,0.00
2013-7-12,84.0,72.2,59.9,59.9,53.7,49.7,89,55,31,30.18,30.09,6,1,11,0.00
2013-7-13,83.9,72.3,61.9,62.6,58.1,53.6,87,63,39,30.18,30.09,8,2,13,0.00
2013-7-14,87.3,75.4,61.3,68.2,63.7,57.8,100,69,44,30.25,30.16,7,1,15,0.00
2013-7-15,92.4,80.6,67.2,76.2,69.0,64.7,100,71,42,30.30,30.22,6,1,10,0.00
2013-7-16,90.7,82.0,72.8,78.5,73.1,67.5,100,78,49,30.31,30.26,8,2,14,0.00
2013-7-17,92.7,83.4,75.0,77.1,73.0,66.1,100,74,44,30.32,30.19,8,2,13,0.00
2013-7-18,91.3,83.0,74.4,76.1,71.5,65.2,100,71,46,30.20,29.93,12,3,21,0.00
2013-7-19,89.2,80.3,71.6,73.2,68.1,59.5,86,68,47,29.93,29.77,9,4,17,0.03
2013-7-20,85.1,74.7,64.1,66.0,61.7,57.2,97,67,43,29.98,29.86,7,2,13,0.00
2013-7-21,84.2,67.7,61.0,69.8,63.0,58.8,100,87,52,29.99,29.90,13,3,21,1.26
2013-7-22,85.8,71.3,60.9,75.2,65.8,60.9,100,86,51,29.91,29.71,17,3,34,0.95
2013-7-23,75.5,67.6,57.5,65.5,56.6,50.9,100,71,44,30.01,29.75,9,3,16,0.00
2013-7-24,75.3,64.2,53.3,62.3,52.6,46.0,100,70,38,30.10,30.01,7,1,12,0.00
2013-7-25,79.0,67.4,57.1,68.4,60.0,53.3,100,79,51,30.09,29.98,11,3,19,0.21
2013-7-26,76.8,66.6,60.6,71.8,61.8,51.2,100,87,44,29.99,29.85,11,3,23,0.20
2013-7-27,60.8,54.8,50.3,58.2,49.5,43.5,100,84,59,29.97,29.88,10,4,18,0.00
2013-7-28,65.8,57.7,51.0,54.5,51.4,47.1,100,81,57,30.04,29.86,9,4,18,0.00
2013-7-29,77.1,64.6,53.5,59.5,55.6,52.0,100,75,47,30.18,30.03,6,1,10,0.00
2013-7-30,71.3,64.3,56.8,66.4,61.2,56.8,100,91,67,30.18,30.09,6,1,9,0.00
2013-7-31,79.8,68.4,63.0,70.3,64.1,61.3,100,88,56,30.10,29.98,10,2,21,0.11
2013-8-1,78.7,68.5,59.5,64.6,57.3,49.3,100,72,39,30.03,29.92,11,2,18,0.00
2013-8-2,79.8,69.6,61.4,70.6,59.7,52.5,100,74,42,29.99,29.84,8,2,14,0.23
2013-8-3,76.8,67.3,54.8,59.6,52.6,46.4,100,63,36,30.16,29.99,8,2,15,0.00
2013-8-4,76.1,65.9,53.6,60.5,54.4,48.0,100,69,38,30.24,30.12,6,1,8,0.00
2013-8-5,71.5,64.1,58.2,67.1,62.1,58.1,100,94,68,30.12,29.87,10,2,18,0.04
2013-8-6,83.1,73.2,65.3,73.5,68.0,64.7,100,86,57,29.90,29.81,9,2,16,0.00
2013-8-7,79.4,72.8,64.7,72.7,65.3,58.9,100,79,54,29.99,29.77,8,2,15,0.00
2013-8-8,80.8,69.1,59.0,66.1,60.6,55.1,100,77,43,30.07,29.99,7,1,12,0.00
2013-8-9,78.2,68.7,61.0,67.3,59.5,53.4,99,74,50,30.08,29.99,9,2,15,0.00
2013-8-10,76.5,66.2,56.4,58.3,55.1,51.1,100,70,44,30.18,30.08,8,2,12,0.00
2013-8-11,74.8,65.4,56.0,67.9,62.6,55.9,100,91,66,30.15,30.04,8,1,13,0.20
2013-8-12,82.4,70.7,63.8,72.5,63.3,56.8,100,80,46,30.05,29.93,8,2,15,0.04
2013-8-13,71.6,62.4,53.2,60.7,50.7,44.3,100,68,42,30.18,30.00,10,3,14,0.00
2013-8-14,75.0,62.1,47.2,60.4,51.0,45.3,100,71,39,30.24,30.14,7,1,12,0.00
2013-8-15,77.0,65.3,56.4,56.1,53.8,46.5,95,69,38,30.17,30.11,7,1,11,0.00
2013-8-16,81.5,69.1,59.3,59.8,53.8,45.9,91,62,32,30.21,30.14,7,1,9,0.00
2013-8-17,81.3,69.0,55.0,61.8,54.2,46.6,100,64,32,30.26,30.18,6,1,12,0.00
2013-8-18,82.3,70.7,59.8,59.3,54.8,48.1,87,60,33,30.23,30.11,7,1,12,0.00
2013-8-19,81.3,70.5,60.3,64.0,59.9,55.1,96,71,45,30.12,30.04,9,2,14,0.00
2013-8-20,85.8,74.3,64.0,69.1,63.6,58.5,100,73,42,30.09,30.01,10,3,17,0.00
2013-8-21,87.8,77.5,68.4,72.3,67.5,63.8,100,74,46,30.04,29.95,15,4,24,0.00
2013-8-22,77.4,70.6,65.2,73.0,69.1,65.2,100,95,72,30.17,30.00,14,2,22,0.82
2013-8-23,82.5,70.6,58.1,66.9,58.4,51.6,100,70,40,30.21,30.13,7,1,11,0.00
2013-8-24,84.1,72.4,61.2,70.6,60.3,47.6,97,67,51,30.26,30.17,8,2,14,0.00
2013-8-25,87.5,77.3,68.3,70.7,67.3,63.3,100,74,47,30.22,30.11,10,4,22,0.00
2013-8-26,90.5,79.6,69.7,75.3,70.4,67.1,94,75,52,30.15,29.99,8,4,15,0.00
2013-8-27,92.2,82.1,73.4,76.4,71.7,67.9,97,73,48,29.99,29.83,13,4,22,0.00
2013-8-28,82.2,75.4,69.4,77.2,71.9,66.9,100,90,62,30.07,29.87,9,2,14,0.00
2013-8-29,86.6,76.3,63.5,74.1,67.5,62.3,100,77,45,30.11,29.98,8,2,13,0.00
2013-8-30,91.7,78.9,69.9,78.5,72.3,68.7,100,83,55,29.99,29.80,11,4,17,0.00
2013-8-31,82.3,71.5,64.6,69.6,66.1,63.1,100,85,56,29.91,29.81,10,2,17,0.00
2013-9-1,83.0,71.4,63.8,75.2,64.8,56.6,100,83,44,29.87,29.75,7,2,12,0.00
2013-9-2,69.4,63.1,53.3,62.9,57.0,52.7,100,82,58,30.03,29.87,7,2,12,0.00
2013-9-3,74.4,61.1,47.9,60.6,53.7,47.8,100,80,47,30.12,30.03,7,1,12,0.00
2013-9-4,82.7,68.7,54.4,68.9,60.3,54.4,100,78,46,30.14,30.05,7,2,13,0.00
2013-9-5,75.8,67.5,57.8,67.6,58.8,49.5,100,75,54,30.28,30.13,7,3,14,0.00
2013-9-6,86.8,71.0,56.0,62.2,56.8,47.2,82,63,43,30.23,29.99,10,2,18,0.00
2013-9-7,90.2,76.9,66.1,74.6,66.1,60.6,99,72,45,30.00,29.90,12,3,18,0.01
2013-9-8,71.6,67.2,62.0,71.0,66.6,61.8,100,98,91,30.08,29.97,13,5,23,0.00
2013-9-9,92.8,78.1,66.0,76.0,69.3,65.7,100,78,46,29.98,29.80,9,3,14,0.00
2013-9-10,92.8,81.7,72.5,70.6,61.1,52.5,89,53,26,29.99,29.85,15,4,27,0.04
2013-9-11,82.1,72.1,64.7,71.7,66.7,61.3,100,85,53,30.13,29.98,9,2,19,0.22
2013-9-12,72.7,65.2,57.0,66.5,54.1,46.5,100,70,42,30.16,30.00,10,4,21,0.00
2013-9-13,65.6,54.6,46.0,48.3,42.6,36.2,100,67,36,30.25,30.15,8,2,17,0.00
2013-9-14,71.0,58.6,46.0,50.1,45.4,41.5,100,66,36,30.18,29.99,9,2,14,0.00
2013-9-15,59.9,55.6,52.8,59.1,54.4,45.1,100,96,59,30.24,29.96,11,2,16,0.76
2013-9-16,63.6,53.7,43.1,55.2,46.0,41.3,100,78,48,30.41,30.24,11,3,16,0.00
2013-9-17,69.3,56.0,42.1,59.6,51.0,42.1,100,86,54,30.35,30.08,8,2,15,0.01
2013-9-18,77.4,66.8,58.5,70.6,63.2,57.5,100,89,62,30.08,29.88,9,4,15,0.00
2013-9-19,87.6,71.2,65.8,79.5,68.5,57.8,100,93,52,29.90,29.73,19,3,33,1.93
2013-9-20,67.7,63.5,55.7,66.2,60.7,51.1,100,91,65,29.86,29.74,12,4,19,0.00
2013-9-21,61.7,53.8,46.3,55.8,49.2,43.6,100,86,56,29.96,29.85,10,2,17,0.00
2013-9-22,65.2,53.1,42.6,49.4,46.1,42.6,100,80,49,30.08,29.96,7,1,10,0.00
2013-9-23,69.3,56.9,45.6,53.9,49.9,45.6,100,80,51,30.12,30.02,7,2,12,0.00
2013-9-24,71.9,58.8,47.0,54.3,50.6,46.1,100,78,41,30.04,29.95,6,1,10,0.00
2013-9-25,72.7,58.1,46.9,60.5,51.2,46.8,100,82,44,30.01,29.94,9,1,15,0.00
2013-9-26,77.1,61.8,47.5,64.0,51.5,47.4,100,74,37,30.09,29.99,8,2,14,0.00
2013-9-27,80.4,66.2,53.4,56.2,52.1,44.4,100,65,30,30.14,30.04,10,2,19,0.00
2013-9-28,80.2,64.3,53.5,68.5,55.6,48.3,100,76,49,30.04,29.84,14,4,35,0.22
2013-9-29,72.3,58.2,46.4,59.1,47.7,38.8,100,74,32,30.08,29.98,6,0,9,0.00
2013-9-30,73.3,61.3,48.6,49.2,45.6,40.1,93,60,31,29.99,29.82,10,3,19,0.00
2013-10-1,79.5,66.8,57.4,63.2,57.8,49.3,100,75,47,29.99,29.83,12,4,24,0.00
2013-10-2,78.9,64.7,49.7,55.2,45.3,29.5,100,56,19,30.13,29.98,7,1,11,0.00
2013-10-3,75.3,66.4,58.9,71.7,64.0,40.5,100,93,49,29.97,29.83,10,2,20,0.00
2013-10-4,67.0,64.9,61.5,66.8,64.9,61.4,100,100,100,30.01,29.87,9,2,18,0.93
2013-10-5,72.0,64.8,54.6,72.0,64.5,47.9,100,99,74,29.94,29.75,9,2,14,0.12
2013-10-6,56.2,49.3,43.0,47.6,43.2,37.8,100,82,53,29.78,29.68,10,2,16,0.01
2013-10-7,67.7,53.4,43.7,50.0,44.6,39.6,100,76,38,30.08,29.72,10,3,18,0.00
2013-10-8,75.8,60.7,45.3,51.2,44.6,38.0,93,59,27,30.14,30.07,11,2,18,0.00
2013-10-9,73.4,59.2,-7.2,51.2,44.7,-14.1,94,62,31,30.21,30.11,8,2,16,0.00
2013-10-10,53.4,3.6,-54.5,47.2,-5.9,-62.4,98,65,36,30.17,30.03,7,1,12,0.00
2013-10-11,74.0,20.4,-20.9,56.3,13.0,-21.1,100,77,51,30.04,29.90,11,3,20,0.00
2013-10-12,67.8,60.6,48.4,61.0,49.4,37.1,100,69,39,30.16,29.89,14,4,22,0.00
2013-10-13,63.1,50.2,41.7,42.4,36.6,29.8,89,62,31,30.40,30.16,10,2,17,0.00
2013-10-14,61.5,50.5,36.6,46.7,41.6,35.1,100,74,50,30.41,30.10,8,3,15,0.00
2013-10-15,58.9,52.2,46.7,58.6,49.6,42.1,100,91,76,30.10,29.73,14,4,24,0.31
2013-10-16,52.1,47.7,42.6,51.3,47.5,42.3,100,99,91,29.94,29.77,11,3,17,0.05
2013-10-17,55.6,46.7,42.4,48.3,42.4,38.2,100,86,54,29.92,29.80,8,1,13,0.03
2013-10-18,46.2,43.5,39.6,45.1,39.4,35.8,100,86,69,29.93,29.79,12,3,20,0.00
2013-10-19,52.1,41.0,34.0,42.6,37.2,30.6,100,88,46,29.90,29.71,13,3,23,0.02
2013-10-20,48.2,41.5,31.6,48.0,40.7,31.5,100,97,75,29.83,29.68,9,2,18,0.10
2013-10-21,46.4,37.6,29.4,45.3,29.2,22.6,98,72,52,29.93,29.74,13,4,22,0.00
2013-10-22,46.1,35.5,27.7,31.0,27.7,24.0,88,74,53,29.95,29.88,6,1,12,0.00
2013-10-23,41.6,34.0,26.5,31.8,28.3,25.1,100,81,53,30.00,29.92,9,2,15,0.00
2013-10-24,43.4,35.7,29.7,30.4,25.9,23.4,90,69,50,30.27,30.00,11,3,20,0.00
2013-10-25,51.7,39.8,28.7,32.1,27.6,24.0,88,64,41,30.33,29.89,16,5,30,0.00
2013-10-26,50.3,44.1,37.2,36.8,30.2,27.1,76,59,44,30.06,29.77,15,5,26,0.00
2013-10-27,54.5,42.1,31.5,32.5,29.6,27.8,88,64,37,30.05,29.87,12,3,24,0.00
2013-10-28,42.6,39.2,35.3,34.9,31.9,28.3,94,75,62,30.38,30.01,13,6,22,0.00
2013-10-29,49.7,42.8,35.7,43.4,37.3,29.1,96,81,70,30.38,30.11,7,3,12,0.00
2013-10-30,55.1,49.7,43.7,54.9,49.6,42.9,100,99,96,30.11,29.72,8,2,17,0.01
2013-10-31,60.2,53.9,41.7,60.2,53.9,41.6,100,100,100,29.72,29.28,13,5,21,0.87
2013-11-1,45.6,42.1,38.5,45.4,42.0,38.5,100,100,93,29.73,29.34,10,4,20,0.02
2013-11-2,46.1,39.7,34.6,39.2,36.0,32.6,100,88,66,30.13,29.73,9,2,18,0.00
2013-11-3,50.9,39.8,28.4,41.2,33.8,28.4,100,81,49,30.26,30.13,10,3,19,0.00
2013-11-4,51.6,47.0,40.9,48.7,40.1,35.6,100,77,64,30.16,30.01,14,5,31,0.00
2013-11-5,53.2,49.6,45.7,52.5,48.9,45.6,100,97,83,30.23,29.83,12,3,22,0.57
2013-11-6,54.6,41.8,31.5,54.5,37.8,23.3,100,87,57,30.15,29.70,12,5,22,0.30
2013-11-7,41.7,33.7,28.1,32.2,28.7,24.6,99,82,63,30.22,30.14,11,3,19,0.00
2013-11-8,46.7,36.3,24.8,34.7,30.5,24.4,100,81,61,30.25,29.76,14,3,22,0.00
2013-11-9,51.7,45.3,36.6,41.0,35.2,24.9,85,68,53,30.08,29.73,21,8,36,0.00
2013-11-10,48.7,40.5,34.0,32.3,29.7,26.4,77,66,47,30.31,30.09,12,5,23,0.00
2013-11-11,44.1,30.5,19.6,34.8,25.4,14.5,100,82,64,30.54,30.03,10,4,18,0.05
2013-11-12,29.8,20.6,15.6,16.9,14.2,12.0,88,76,53,30.68,30.51,9,3,14,0.01
2013-11-13,41.8,29.3,16.8,20.1,16.8,13.7,89,62,38,30.52,30.02,16,9,26,0.00
2013-11-14,46.8,39.4,31.7,32.3,26.3,18.5,73,59,49,30.02,29.85,13,6,22,0.01
2013-11-15,51.8,40.1,31.5,34.5,30.4,27.8,93,69,50,29.90,29.84,10,3,14,0.00
2013-11-16,52.0,41.7,31.2,52.0,41.5,29.7,100,99,93,29.84,29.44,16,6,28,0.23
2013-11-17,52.2,44.1,31.8,52.0,43.3,27.4,100,97,84,29.67,29.16,21,6,35,1.08
2013-11-18,32.2,27.1,19.9,27.9,20.7,15.8,91,77,60,30.22,29.67,17,6,32,0.00
2013-11-19,34.8,23.8,11.3,23.0,18.3,11.2,100,81,56,30.32,30.19,11,2,18,0.00
2013-11-20,36.2,28.8,23.1,31.8,25.7,19.9,100,89,66,30.19,30.04,13,4,24,0.05
2013-11-21,33.8,29.8,22.5,32.9,29.7,22.5,100,100,96,30.24,30.06,7,2,16,0.00
2013-11-22,22.9,14.1,0.1,22.9,9.6,-6.9,100,83,58,30.46,30.23,10,4,20,0.03
2013-11-23,0.7,-7.9,-16.0,-4.8,-15.9,-21.3,81,67,52,30.68,30.38,12,5,28,0.00
2013-11-24,6.0,-4.0,-17.7,-6.9,-13.7,-21.1,91,65,40,30.65,30.20,17,5,32,0.00
2013-11-25,19.0,11.7,1.9,17.5,9.0,-8.0,100,89,54,30.19,29.97,17,7,28,0.00
2013-11-26,23.6,15.3,2.3,20.7,8.8,-4.7,94,76,58,30.18,29.97,10,4,20,0.00
2013-11-27,17.5,8.8,-0.3,6.0,1.8,-5.1,91,74,55,30.23,30.14,8,4,15,0.00
2013-11-28,22.5,16.4,11.2,10.8,8.1,4.7,80,69,60,30.46,30.08,9,3,14,0.00
2013-11-29,27.0,17.1,5.0,18.2,11.7,3.6,97,80,62,30.56,30.28,9,2,14,0.00
2013-11-30,39.5,29.1,18.6,28.6,23.4,15.9,92,80,64,30.28,29.99,11,4,17,0.00
2013-12-1,35.7,29.5,24.9,27.7,24.2,20.3,96,81,62,30.11,29.93,7,2,10,0.00
2013-12-2,33.7,27.3,20.1,30.6,25.5,20.1,100,94,79,29.94,29.68,8,2,14,0.08
2013-12-3,33.9,31.1,26.9,33.9,31.1,26.9,100,100,100,29.71,29.62,8,4,11,0.01
2013-12-4,44.5,35.0,27.4,44.2,35.0,27.3,100,100,100,29.71,29.42,15,5,27,0.00
2013-12-5,27.5,10.9,1.3,27.3,6.2,-2.4,100,81,67,30.23,29.61,15,7,29,0.00
2013-12-6,6.0,-1.2,-6.2,-1.9,-6.1,-9.8,94,80,62,30.50,30.21,11,4,18,0.00
2013-12-7,4.0,-5.3,-12.8,-6.0,-10.9,-14.5,93,77,52,30.63,30.50,9,2,13,0.00
2013-12-8,9.0,3.1,-4.2,9.0,0.5,-9.5,100,89,70,30.53,29.90,9,4,14,0.08
2013-12-9,6.3,-4.3,-17.7,6.2,-7.2,-20.2,100,88,71,30.12,29.88,15,5,29,0.00
2013-12-10,7.8,-2.6,-18.9,2.8,-7.0,-21.2,95,82,61,30.19,29.84,15,6,25,0.00
2013-12-11,5.4,-3.3,-15.4,5.1,-8.6,-20.9,100,78,59,30.45,30.18,12,3,20,0.01
2013-12-12,10.0,1.3,-15.2,5.0,-3.6,-18.4,88,79,68,30.42,30.10,11,5,18,0.00
2013-12-13,15.4,9.4,3.2,13.0,6.9,1.0,97,90,75,30.14,30.07,14,5,23,0.00
2013-12-14,14.6,10.7,7.0,13.6,10.1,4.3,100,97,90,30.12,29.89,15,5,22,0.00
2013-12-15,6.9,-0.9,-6.3,4.6,-6.8,-15.0,93,76,60,30.07,29.88,15,5,21,0.00
2013-12-16,4.6,-3.2,-15.1,4.6,-6.9,-18.8,100,84,67,30.07,29.95,7,1,12,0.15
2013-12-17,25.1,14.0,3.6,23.0,10.0,-0.9,100,85,62,30.03,29.86,14,6,22,0.00
2013-12-18,28.2,13.0,-1.3,19.4,6.9,-5.0,95,78,54,30.05,29.71,14,5,22,0.00
2013-12-19,24.3,17.3,10.7,21.6,16.1,10.4,100,95,82,29.92,29.73,15,6,22,0.00
2013-12-20,12.6,10.3,8.2,12.5,10.3,8.2,100,100,100,29.84,29.76,14,5,20,0.00
2013-12-21,15.6,13.2,11.1,15.4,13.2,11.0,100,100,100,29.84,29.68,10,2,14,0.00
2013-12-22,16.7,13.9,11.5,16.7,13.9,11.5,100,100,100,30.07,29.66,6,1,9,0.40
2013-12-23,13.1,-3.2,-16.8,13.1,-4.5,-18.7,100,94,83,30.37,30.06,0,0,0,0.07
2013-12-24,3.2,-10.6,-23.2,0.2,-12.4,-24.8,98,91,81,30.46,30.20,0,0,0,0.03
2013-12-25,13.5,8.8,-2.3,13.3,8.8,-3.1,100,100,98,30.21,30.02,7,0,12,0.02
2013-12-26,21.2,12.5,-0.1,19.5,11.7,-1.0,100,96,88,30.16,30.04,7,0,13,0.00
2013-12-27,33.7,21.7,10.2,29.6,20.0,10.1,100,94,83,30.19,29.97,16,4,27,0.00
2013-12-28,41.5,33.7,24.6,31.7,29.2,24.6,100,84,66,30.00,29.71,10,5,20,0.00
2013-12-29,37.0,17.5,-6.6,32.1,14.0,-12.5,100,86,76,30.18,29.68,15,6,28,0.00
2013-12-30,1.7,-5.6,-14.8,-3.0,-11.0,-18.9,92,77,59,30.24,30.12,7,2,11,0.03
2013-12-31,5.2,-0.0,-6.8,2.7,-2.1,-8.5,94,91,78,30.28,30.11,9,1,15,0.05
2014-1-1,5.8,1.8,-3.2,0.8,-3.4,-9.1,86,78,73,30.30,30.23,12,6,18,0.00
2014-1-2,10.0,4.9,-2.4,2.4,-0.8,-8.0,90,77,65,30.36,30.19,10,3,15,0.00